South Hill, VA

12:23 PM EST on December 12, 2019 (GMT -0500)
Mecklenburg-Brunswick Regional

Weather History for KAVC - September, 2019

Change the Weather History Date:

Thursday, September 26, 2019

  Actual Average (WUND) Record (WUND)
Temperature  
Mean Temperature 78 °F -  
Max Temperature 93 °F - - (-1)
Min Temperature 65 °F - - (-1)
Cooling Degree Days 14    
Growing Degree Days 28 (Base 50)    
Moisture  
Dew Point 65 °F    
Average Humidity 70    
Maximum Humidity 100    
Minimum Humidity 35    
Precipitation  
Precipitation 0.00 in - - ()
Sea Level Pressure  
Sea Level Pressure 29.92 in    
Wind  
Wind Speed 6 mph (SSW)    
Max Wind Speed 13 mph    
Max Gust Speed 17 mph    
Averages and records for this station are not official NWS values.
T = Trace of Precipitation, MM = Missing Value Source: NWS Daily Summary

Daily Weather History Graph

Daily Weather History Graph

Search for Another Location

Airport or City:

Astronomy

Sep. 26, 2019 Rise Set
Actual Time 7:03 AM EDT 7:03 PM EDT
Civil Twilight 6:37 AM EDT 7:29 PM EDT
Nautical Twilight 6:07 AM EDT 7:59 PM EDT
Astronomical Twilight 5:36 AM EDT 8:29 PM EDT
Moon 4:14 AM EDT (9/26) 6:09 PM EDT (9/26)
Length of Visible Light 12h 51m
Length of Day
12h 00m
Waning Crescent, 7% of the Moon is Illuminated
Sep 26
Waning Crescent
Sep 28
New
Oct 5
First Quarter
Oct 13
Full
Oct 21
Last Quarter

Hourly Weather History & Observations

Time (EDT) Temp. Heat Index Dew Point Humidity Pressure Visibility Wind Dir Wind Speed Gust Speed Precip Events Conditions
12:15 AM 68.5 °F - 64.6 °F 87% 29.96 in - South 5.8 mph - N/A   Unknown
12:35 AM 67.8 °F - 65.1 °F 91% 29.96 in - South 5.8 mph - N/A   Unknown
12:55 AM 68.0 °F - 65.8 °F 93% 29.96 in - South 5.8 mph - N/A   Unknown
1:15 AM 68.0 °F - 66.4 °F 95% 29.96 in - South 5.8 mph - N/A   Unknown
1:35 AM 67.6 °F - 66.6 °F 96% 29.96 in - SSE 4.6 mph - N/A   Unknown
1:55 AM 67.3 °F - 66.7 °F 98% 29.95 in - South 4.6 mph - N/A   Unknown
2:15 AM 66.0 °F - 66.0 °F 100% 29.95 in - South 3.5 mph - N/A   Unknown
2:35 AM 66.4 °F - 66.4 °F 100% 29.94 in - South 4.6 mph - N/A   Unknown
2:55 AM 65.7 °F - 65.7 °F 100% 29.93 in - South 4.6 mph - N/A   Unknown
3:15 AM 66.2 °F - 66.2 °F 100% 29.93 in - SSW 4.6 mph - N/A   Unknown
3:35 AM 66.2 °F - 66.2 °F 100% 29.92 in - South 4.6 mph - N/A   Unknown
3:55 AM 66.2 °F - 66.2 °F 100% 29.92 in - South 3.5 mph - N/A   Unknown
4:15 AM 65.8 °F - 65.8 °F 100% 29.92 in - South 3.5 mph - N/A   Unknown
4:55 AM 66.0 °F - 66.0 °F 100% 29.91 in - South 4.6 mph - N/A   Mostly Cloudy
5:15 AM 66.9 °F - 66.9 °F 100% 29.91 in - South 5.8 mph - N/A   Overcast
5:35 AM 68.0 °F - 68.0 °F 100% 29.91 in - South 5.8 mph - N/A   Overcast
5:55 AM 68.7 °F - 68.7 °F 100% 29.92 in - SSW 8.1 mph - N/A   Overcast
6:15 AM 68.9 °F - 68.9 °F 100% 29.91 in - South 8.1 mph - N/A   Overcast
6:35 AM 68.9 °F - 68.9 °F 100% 29.91 in - SSW 6.9 mph - N/A   Overcast
7:00 AM 69.1 °F - 69.1 °F 100% 29.91 in - SSW 8.1 mph - N/A   Overcast
7:15 AM 69.3 °F - 69.3 °F 100% 29.92 in - SSW 9.2 mph - N/A   Overcast
7:35 AM 69.8 °F - 69.8 °F 100% 29.92 in - SW 8.1 mph - N/A   Overcast
7:55 AM 70.0 °F - 70.0 °F 100% 29.93 in - SSW 8.1 mph - N/A   Overcast
8:15 AM 70.7 °F - 70.7 °F 100% 29.94 in - SSW 8.1 mph - N/A   Overcast
8:35 AM 71.1 °F - 71.1 °F 100% 29.95 in - SSW 8.1 mph - N/A   Overcast
8:55 AM 72.1 °F - 72.0 °F 99% 29.94 in - SSW 8.1 mph - N/A   Overcast
9:15 AM 73.4 °F - 72.1 °F 96% 29.95 in - SW 6.9 mph - N/A   Overcast
9:35 AM 74.1 °F - 72.1 °F 94% 29.95 in - SSW 9.2 mph - N/A   Overcast
9:55 AM 76.5 °F - 72.1 °F 86% 29.94 in - SSW 8.1 mph - N/A   Overcast
10:15 AM 77.0 °F - 72.1 °F 85% 29.94 in - SSW 8.1 mph - N/A   Scattered Clouds
10:55 AM 80.1 °F 83.8 °F 72.0 °F 76% 29.94 in - WSW 5.8 mph - N/A   Clear
11:15 AM 81.5 °F 85.5 °F 70.9 °F 70% 29.93 in - WSW 6.9 mph - N/A   Clear
11:35 AM 84.7 °F 89.1 °F 70.2 °F 61% 29.93 in - SSW 9.2 mph - N/A   Clear
11:55 AM 85.5 °F 88.8 °F 68.4 °F 56% 29.93 in - WSW 9.2 mph - N/A   Clear
12:15 PM 86.0 °F 88.5 °F 66.4 °F 52% 29.93 in - WSW 9.2 mph - N/A   Clear
12:35 PM 87.3 °F 89.2 °F 65.1 °F 48% 29.92 in - SSW 10.4 mph - N/A   Clear
12:55 PM 88.3 °F 89.9 °F 64.4 °F 45% 29.91 in - SW 8.1 mph - N/A   Clear
1:15 PM 88.5 °F 89.5 °F 63.3 °F 43% 29.90 in - WSW 5.8 mph - N/A   Clear
1:35 PM 90.5 °F 91.1 °F 62.2 °F 39% 29.89 in - West 9.2 mph - N/A   Scattered Clouds
1:55 PM 90.5 °F 90.4 °F 60.8 °F 37% 29.89 in - WSW 6.9 mph - N/A   Scattered Clouds
2:15 PM 90.5 °F 89.8 °F 59.5 °F 35% 29.88 in - SW 6.9 mph - N/A   Mostly Cloudy
2:35 PM 90.5 °F 90.4 °F 60.8 °F 37% 29.87 in - SSW 6.9 mph - N/A   Scattered Clouds
2:55 PM 91.6 °F 92.3 °F 63.0 °F 38% 29.87 in - SW 12.7 mph 17.3 mph N/A   Scattered Clouds
3:15 PM 91.8 °F 92.6 °F 62.6 °F 38% 29.86 in - SW 10.4 mph 17.3 mph N/A   Scattered Clouds
3:35 PM 91.8 °F 92.2 °F 62.2 °F 37% 29.86 in - SW 8.1 mph - N/A   Scattered Clouds
3:55 PM 92.5 °F 93.0 °F 62.1 °F 36% 29.85 in - WSW 8.1 mph 17.3 mph N/A   Mostly Cloudy
4:15 PM 92.7 °F 93.2 °F 62.2 °F 36% 29.85 in - WSW 6.9 mph - N/A   Mostly Cloudy
4:35 PM 91.4 °F 91.7 °F 61.9 °F 37% 29.85 in - WSW 9.2 mph - N/A   Mostly Cloudy
4:55 PM 90.1 °F 90.2 °F 61.7 °F 38% 29.85 in - WSW 5.8 mph 16.1 mph N/A   Mostly Cloudy
5:15 PM 91.2 °F 91.8 °F 62.1 °F 38% 29.85 in - WSW 8.1 mph - N/A   Overcast
5:35 PM 91.0 °F 91.2 °F 61.7 °F 37% 29.85 in - SSW 10.4 mph - N/A   Scattered Clouds
5:55 PM 90.5 °F 90.7 °F 61.7 °F 38% 29.85 in - SW 8.1 mph - N/A   Clear
6:15 PM 89.1 °F 88.8 °F 60.4 °F 38% 29.86 in - SW 5.8 mph - N/A   Clear
6:35 PM 87.8 °F 87.4 °F 59.9 °F 39% 29.87 in - WSW 4.6 mph - N/A   Clear
6:55 PM 86.5 °F 86.3 °F 60.1 °F 41% 29.88 in - Calm Calm - N/A   Clear
7:15 PM 83.8 °F 84.1 °F 60.8 °F 46% 29.88 in - Calm Calm - N/A   Clear
7:35 PM 83.7 °F 83.9 °F 61.0 °F 46% 29.89 in - Calm Calm - N/A   Mostly Cloudy
7:55 PM 82.4 °F 82.9 °F 61.0 °F 48% 29.90 in - West 3.5 mph - N/A   Scattered Clouds
8:15 PM 83.3 °F 83.7 °F 61.0 °F 47% 29.91 in - Calm Calm - N/A   Mostly Cloudy
8:35 PM 79.5 °F - 62.8 °F 56% 29.93 in - Calm Calm - N/A   Mostly Cloudy
8:55 PM 79.2 °F - 63.5 °F 59% 29.93 in - Calm Calm - N/A   Mostly Cloudy
9:15 PM 79.3 °F - 63.9 °F 59% 29.95 in - Calm Calm - N/A   Overcast
9:35 PM 79.0 °F - 64.4 °F 61% 29.96 in - Calm Calm - N/A   Overcast
9:55 PM 79.2 °F - 64.6 °F 61% 29.96 in - North 3.5 mph - N/A   Overcast
10:15 PM 80.2 °F 81.9 °F 64.4 °F 58% 29.98 in - NNE 8.1 mph - N/A   Overcast
10:35 PM 79.7 °F - 64.9 °F 61% 29.99 in - NNE 5.8 mph - N/A   Overcast
10:55 PM 78.8 °F - 65.1 °F 63% 30.00 in - NNE 4.6 mph - N/A   Overcast
11:15 PM 78.1 °F - 65.1 °F 64% 30.01 in - NNE 3.5 mph - N/A   Overcast
11:35 PM 77.4 °F - 64.9 °F 65% 30.01 in - Calm Calm - N/A   Overcast
11:55 PM 77.0 °F - 64.6 °F 65% 30.01 in - Calm Calm - N/A   Overcast